EW5833 Weather Reports


time (UTC)temp
C
wind
direction
speed
KPH
gust
KPH
rain 1hr
cm
rain 24hr
cm
rain mn
cm
humidity
%
barometer
mb
20260505152013 11 295 3.2 8.0 0.00 0.00 0.00 69 1005.8
20260505151741 11 295 3.2 8.0 0.00 0.00 0.00 69 1005.8
20260505151005 10 0 0.0 3.2 0.00 0.00 0.00 69 1005.7
20260505150741 10 0 0.0 3.2 0.00 0.00 0.00 69 1005.7
20260505124529 11 55 4.8 14.5 0.00 0.00 0.00 71 1003.3
20260505124018 11 49 4.8 11.3 0.00 0.00 0.00 72 1003.2
20260505123742 11 49 4.8 11.3 0.00 0.00 0.00 72 1003.2
20260505123014 10 0 3.2 11.3 0.00 0.00 0.00 75 1003.1
20260505122530 10 0 3.2 11.3 0.00 0.00 0.00 75 1003.1
20260505122517 10 354 4.8 11.3 0.00 0.00 0.00 77 1003.2
20260505121531 10 354 4.8 11.3 0.00 0.00 0.00 77 1003.2
20260505121010 11 2 3.2 11.3 0.00 0.00 0.00 77 1003.1
20260505120744 11 2 3.2 11.3 0.00 0.00 0.00 77 1003.1
20260505115531 11 16 3.2 11.3 0.00 0.00 0.00 79 1002.8
20260505115010 13 92 6.4 17.7 0.00 0.00 0.00 80 1002.7
20260505114744 13 92 6.4 17.7 0.00 0.00 0.00 80 1002.7
20260505114007 13 221 1.6 8.0 0.00 0.00 0.00 79 1002.1
20260505113742 13 221 1.6 8.0 0.00 0.00 0.00 79 1002.1
20260505112942 12 276 1.6 4.8 0.00 0.03 0.00 83 1001.7
20260505112721 13 299 1.6 8.0 0.00 0.03 0.00 81 1002.0
20260505111741 12 276 1.6 4.8 0.00 0.03 0.00 83 1001.7
20260505110530 12 239 0.0 1.6 0.00 0.03 0.00 85 1001.7
20260505101512 13 211 1.6 4.8 0.00 0.03 0.00 85 1000.6
20260505100511 13 223 1.6 4.8 0.00 0.03 0.00 85 1000.5
20260505095949 13 201 3.2 4.8 0.00 0.03 0.00 84 1000.2
20260505095503 13 201 3.2 4.8 0.00 0.03 0.00 84 1000.2
20260505094936 13 217 1.6 6.4 0.00 0.03 0.00 83 1000.2
20260505094714 13 217 1.6 6.4 0.00 0.03 0.00 83 1000.2
20260505093502 14 188 3.2 6.4 0.00 0.03 0.00 82 1000.0
20260505092502 14 223 3.2 8.0 0.00 0.03 0.00 80 999.9
20260505092159 14 231 3.2 12.9 0.00 0.03 0.00 79 999.8
20260505092038 14 231 3.2 12.9 0.00 0.03 0.00 79 999.8
20260505090502 15 215 3.2 8.0 0.00 0.03 0.00 77 999.8
20260505085502 15 232 3.2 6.4 0.00 0.03 0.00 76 999.8
20260505084502 15 224 3.2 6.4 0.00 0.03 0.00 75 999.8
20260505084149 15 231 3.2 6.4 0.00 0.03 0.00 74 999.7
20260505084004 15 231 3.2 6.4 0.00 0.03 0.00 74 999.7
20260505083221 15 226 3.2 6.4 0.00 0.03 0.00 73 999.6
20260505083023 15 226 3.2 6.4 0.00 0.03 0.00 73 999.6
20260505083019 15 223 3.2 6.4 0.00 0.03 0.00 74 999.5
20260505082509 15 223 3.2 6.4 0.00 0.03 0.00 74 999.5
20260505080502 15 237 3.2 6.4 0.00 0.03 0.00 73 999.5
20260505075940 15 224 3.2 6.4 0.00 0.03 0.00 73 999.4
20260505075500 15 224 3.2 6.4 0.00 0.03 0.00 73 999.4
20260505074502 15 246 3.2 6.4 0.00 0.03 0.00 73 999.1
20260505073501 15 223 1.6 4.8 0.00 0.03 0.00 74 998.9
20260505072932 15 233 3.2 4.8 0.00 0.03 0.00 73 998.7
20260505072713 15 233 3.2 4.8 0.00 0.03 0.00 73 998.7
20260505071500 15 229 1.6 4.8 0.00 0.03 0.00 73 998.7
20260505070503 15 205 3.2 8.0 0.00 0.03 0.00 73 998.9
20260505065935 15 0 1.6 6.4 0.00 0.03 0.00 73 999.2
20260505065713 15 0 1.6 6.4 0.00 0.03 0.00 73 999.2
20260505064501 15 209 1.6 4.8 0.00 0.03 0.00 73 998.9
20260505064120 16 226 1.6 4.8 0.00 0.03 0.00 72 999.1
20260505063923 16 226 1.6 8.0 0.00 0.03 0.00 72 999.3
20260505063637 16 226 1.6 4.8 0.00 0.03 0.00 72 999.1
20260505062503 16 226 1.6 8.0 0.00 0.03 0.00 72 999.3
20260505061508 16 231 3.2 8.0 0.00 0.03 0.00 72 999.5
20260505060501 16 210 3.2 9.7 0.00 0.03 0.00 70 999.5
20260505055939 16 222 3.2 6.4 0.00 0.00 0.00 69 999.2
20260505055713 16 222 3.2 6.4 0.00 0.00 0.00 69 999.2
20260505054502 17 235 3.2 6.4 0.00 0.00 0.00 69 999.0
20260505053502 17 245 3.2 6.4 0.00 0.00 0.00 68 999.1
20260505052502 17 231 3.2 6.4 0.00 0.00 0.00 68 999.0
20260505051502 17 212 3.2 6.4 0.00 0.00 0.00 70 999.1
20260505050940 18 162 4.8 12.9 0.00 0.00 0.00 70 999.4
20260505050502 18 162 4.8 12.9 0.00 0.00 0.00 70 999.4
20260505041502 17 198 3.2 6.4 0.00 0.00 0.00 71 998.8
20260505040504 17 153 3.2 9.7 0.00 0.00 0.00 72 998.8
20260505035814 -17 0.0 0.0 0.00 0.00 0.00
20260505035630 -17 0.0 0.0 0.00 0.00 0.00
20260505035625 -17 0.0 0.0 0.00 0.00 0.00
20260505035621 -17 0.0 0.0 0.00 0.00 0.00
20260505035615 -17 0.0 0.0 0.00 0.00 0.00
20260505035607 -17 0.0 0.0 0.00 0.00 0.00
20260505035603 24 293 6.4 16.1 0.00 0.00 0.00 31 1000.2
20260505035557 -17 0.0 0.0 0.00 0.00 0.00
20260505035552 -17 0.0 0.0 0.00 0.00 0.00
20260505035541 17 179 3.2 12.9 0.00 0.00 0.00 72 998.9
20260505035316 17 183 3.2 11.3 0.00 0.00 0.00 72 998.9
20260505035029 -17 0.0 0.0 0.00 0.00 0.00
20260505034913 17 183 3.2 11.3 0.00 0.00 0.00 72 998.9
20260505034441 -17 0.0 0.0 0.00 0.00 0.00
20260505034436 -17 0.0 0.0 0.00 0.00 0.00
20260505034150 -17 0.0 0.0 0.00 0.00 0.00
20260505034145 -17 0.0 0.0 0.00 0.00 0.00
20260505034141 16 263 3.2 6.4 0.00 0.00 0.00 73 998.9
20260505033622 16 263 3.2 6.4 0.00 0.00 0.00 73 998.9
20260505033131 -17 0.0 0.0 0.00 0.00 0.00
20260505033126 24 293 6.4 16.1 0.00 0.00 0.00 31 1000.2
20260505033115 16 172 3.2 6.4 0.00 0.00 0.00 74 999.0
20260505032841 24 144 4.8 14.5 0.00 0.00 0.00 31 1000.2
20260505032833 -17 0.0 0.0 0.00 0.00 0.00
20260505032553 16 172 3.2 6.4 0.00 0.00 0.00 74 999.0
20260505032327 -17 0.0 0.0 0.00 0.00 0.00
20260505032319 -17 0.0 0.0 0.00 0.00 0.00
20260505032313 -17 0.0 0.0 0.00 0.00 0.00
20260505032038 16 87 3.2 6.4 0.00 0.00 0.00 75 999.2
20260505031809 -17 0.0 0.0 0.00 0.00 0.00
20260505031758 -17 0.0 0.0 0.00 0.00 0.00
20260505031750 -17 0.0 0.0 0.00 0.00 0.00
20260505031740 -17 0.0 0.0 0.00 0.00 0.00
20260505031736 -17 0.0 0.0 0.00 0.00 0.00
20260505031714 16 87 3.2 6.4 0.00 0.00 0.00 75 999.2
20260505031228 -17 0.0 0.0 0.00 0.00 0.00
20260505031219 -17 0.0 0.0 0.00 0.00 0.00
20260505031210 -17 0.0 0.0 0.00 0.00 0.00
20260505031159 -17 0.0 0.0 0.00 0.00 0.00
20260505031151 -17 0.0 0.0 0.00 0.00 0.00
20260505031141 -17 0.0 0.0 0.00 0.00 0.00
20260505031133 -17 0.0 0.0 0.00 0.00 0.00
20260505031128 -17 0.0 0.0 0.00 0.00 0.00
20260505030852 -17 0.0 0.0 0.00 0.00 0.00
20260505030846 -17 0.0 0.0 0.00 0.00 0.00
20260505030619 -17 0.0 0.0 0.00 0.00 0.00
20260505030609 -17 0.0 0.0 0.00 0.00 0.00
20260505030605 -17 0.0 0.0 0.00 0.00 0.00
20260505030546 16 146 3.2 9.7 0.00 0.00 0.00 75 999.2
20260505030320 -17 0.0 0.0 0.00 0.00 0.00
20260505030310 -17 0.0 0.0 0.00 0.00 0.00
20260505030300 -17 0.0 0.0 0.00 0.00 0.00
20260505030251 -17 0.0 0.0 0.00 0.00 0.00
20260505030246 -17 0.0 0.0 0.00 0.00 0.00
20260505030242 -17 0.0 0.0 0.00 0.00 0.00
20260505025947 -17 0.0 0.0 0.00 0.00 0.00
20260505025942 -17 0.0 0.0 0.00 0.00 0.00
20260505025649 -17 0.0 0.0 0.00 0.00 0.00
20260505025644 -17 0.0 0.0 0.00 0.00 0.00
20260505025640 -17 0.0 0.0 0.00 0.00 0.00
20260505025606 16 202 3.2 11.3 0.00 0.00 0.00 75 999.4
20260505025326 -17 0.0 0.0 0.00 0.00 0.00
20260505025317 -17 0.0 0.0 0.00 0.00 0.00
20260505025306 -17 0.0 0.0 0.00 0.00 0.00
20260505025300 16 0 3.2 14.5 0.00 0.00 0.00 74 999.4
20260505024959 -17 0.0 0.0 0.00 0.00 0.00
20260505024850 16 0 3.2 14.5 0.00 0.00 0.00 74 999.4
20260505024413 -17 0.0 0.0 0.00 0.00 0.00
20260505024408 -17 0.0 0.0 0.00 0.00 0.00
20260505024116 -17 0.0 0.0 0.00 0.00 0.00
20260505024111 16 0 4.8 14.5 0.00 0.00 0.00 74 999.4
20260505023811 -17 0.0 0.0 0.00 0.00 0.00
20260505023807 -17 0.0 0.0 0.00 0.00 0.00
20260505023718 16 0 4.8 14.5 0.00 0.00 0.00 74 999.4
20260505023500 -17 0.0 0.0 0.00 0.00 0.00
20260505023455 -17 0.0 0.0 0.00 0.00 0.00
20260505023449 -17 0.0 0.0 0.00 0.00 0.00
20260505023440 -17 0.0 0.0 0.00 0.00 0.00
20260505023149 -17 0.0 0.0 0.00 0.00 0.00
20260505022853 -17 0.0 0.0 0.00 0.00 0.00
20260505022849 -17 0.0 0.0 0.00 0.00 0.00
20260505022839 -17 0.0 0.0 0.00 0.00 0.00
20260504181300 24 210 4.8 17.7 0.00 0.00 0.00 33 1000.2
20260504180300 23 148 4.8 17.7 0.00 0.00 0.00 33 1000.5
20260504180230 23 217 6.4 16.1 0.00 0.00 0.00 34 1000.5
20260504175300 23 217 6.4 16.1 0.00 0.00 0.00 34 1000.5
20260504174744 23 96 6.4 12.9 0.00 0.00 0.00 35 1000.8
20260504174301 23 96 6.4 12.9 0.00 0.00 0.00 35 1000.8
20260504173740 23 158 4.8 17.7 0.00 0.00 0.00 34 1000.9
20260504173513 23 158 4.8 17.7 0.00 0.00 0.00 34 1000.9
20260504172733 23 243 4.8 16.1 0.00 0.00 0.00 31 1001.2
20260504172513 23 243 4.8 16.1 0.00 0.00 0.00 31 1001.2
20260504171303 23 255 6.4 17.7 0.00 0.00 0.00 33 1001.2
20260504170735 23 166 4.8 12.9 0.00 0.00 0.00 34 1001.3
20260504170513 23 166 4.8 12.9 0.00 0.00 0.00 34 1001.3
20260504160301 21 217 4.8 12.9 0.00 0.00 0.00 46 1002.5